DAL741 KSMF-KATL

Flight info

Callsign DAL741
Flight time N/A
Altitude 35000
Route SCTWN4 RALEY DCT JSICA DCT MLF DCT DVC DCT HELPS DCT ALS DCT KA42W DCT KK39A DCT FSM DCT MEMFS DCT HUTCC DCT KNSAW DCT RUSSA GLAVN1
Aircraft B738/M-SDE2E3FGHIRWXY/LB1

Departure

Time 2026-05-08 18:59
Airport Sacramento International Airport (KSMF)

Arrival

Time N/A
Airport Hartsfield Jackson Atlanta International Airport (KATL)
Time Latitude Longitude Altitude Speed Heading
2026-05-08 18:38 38.69402 -121.58821 32 ft 0 kts 114°
2026-05-08 18:40 38.69408 -121.58840 32 ft 3 kts 103°
2026-05-08 18:40 38.69409 -121.58864 31 ft 3 kts 72°
2026-05-08 18:40 38.69400 -121.58885 30 ft 3 kts 41°
2026-05-08 18:40 38.69384 -121.58897 30 ft 3 kts
2026-05-08 18:41 38.69379 -121.58898 31 ft 0 kts
2026-05-08 18:47 38.69396 -121.58898 33 ft 6 kts
2026-05-08 18:47 38.69445 -121.58896 33 ft 8 kts
2026-05-08 18:47 38.69505 -121.58919 32 ft 10 kts 347°
2026-05-08 18:47 38.69572 -121.58924 33 ft 10 kts
2026-05-08 18:48 38.69638 -121.58919 33 ft 9 kts
2026-05-08 18:48 38.69703 -121.58914 32 ft 9 kts
2026-05-08 18:48 38.69760 -121.58892 32 ft 9 kts 50°
2026-05-08 18:48 38.69765 -121.58815 31 ft 9 kts 91°
2026-05-08 18:49 38.69763 -121.58739 31 ft 8 kts 91°
2026-05-08 18:49 38.69763 -121.58665 31 ft 8 kts 90°
2026-05-08 18:49 38.69763 -121.58618 31 ft 8 kts 90°
2026-05-08 18:49 38.69762 -121.58523 30 ft 8 kts 90°
2026-05-08 18:50 38.69762 -121.58457 30 ft 8 kts 90°
2026-05-08 18:50 38.69762 -121.58411 30 ft 8 kts 90°
2026-05-08 18:50 38.69762 -121.58346 31 ft 7 kts 89°
2026-05-08 18:50 38.69784 -121.58291 32 ft 7 kts 32°
2026-05-08 18:51 38.69830 -121.58278 32 ft 7 kts
2026-05-08 18:51 38.69876 -121.58283 33 ft 7 kts 352°
2026-05-08 18:51 38.69922 -121.58284 34 ft 7 kts 360°
2026-05-08 18:51 38.69959 -121.58284 32 ft 7 kts 360°
2026-05-08 18:52 38.70007 -121.58284 34 ft 7 kts 360°
2026-05-08 18:52 38.70052 -121.58284 35 ft 6 kts 360°
2026-05-08 18:52 38.70096 -121.58281 36 ft 6 kts
2026-05-08 18:52 38.70138 -121.58280 36 ft 7 kts
2026-05-08 18:53 38.70187 -121.58278 37 ft 8 kts
2026-05-08 18:53 38.70246 -121.58277 38 ft 9 kts 357°
2026-05-08 18:53 38.70320 -121.58278 37 ft 12 kts 360°
2026-05-08 18:53 38.70413 -121.58275 35 ft 15 kts
2026-05-08 18:54 38.70518 -121.58272 35 ft 15 kts
2026-05-08 18:54 38.70621 -121.58272 35 ft 14 kts 360°
2026-05-08 18:54 38.70699 -121.58215 34 ft 14 kts 73°
2026-05-08 18:54 38.70701 -121.58141 34 ft 0 kts 92°
2026-05-08 18:57 38.70700 -121.58127 34 ft 6 kts 92°
2026-05-08 18:57 38.70685 -121.58030 34 ft 15 kts 123°
2026-05-08 18:58 38.70579 -121.58012 34 ft 17 kts 179°
2026-05-08 18:58 38.70387 -121.58014 35 ft 42 kts 180°
2026-05-08 18:58 38.69944 -121.58022 34 ft 95 kts 180°
2026-05-08 18:58 38.69059 -121.58032 31 ft 157 kts 181°
2026-05-08 18:59 38.67883 -121.58048 552 ft 168 kts 178°
2026-05-08 18:59 38.66719 -121.57947 1372 ft 172 kts 165°
2026-05-08 18:59 38.65549 -121.57115 1447 ft 217 kts 136°
2026-05-08 18:59 38.64655 -121.55556 2188 ft 210 kts 110°
2026-05-08 19:00 38.64329 -121.53834 3261 ft 195 kts 101°
2026-05-08 19:00 38.64043 -121.52149 4046 ft 201 kts 101°
2026-05-08 19:00 38.63791 -121.50329 4572 ft 211 kts 102°
2026-05-08 19:00 38.63644 -121.48499 5454 ft 199 kts 98°
2026-05-08 19:01 38.63568 -121.46721 6286 ft 198 kts 95°
2026-05-08 19:01 38.63580 -121.44957 6981 ft 199 kts 91°
2026-05-08 19:01 38.63683 -121.43135 7411 ft 213 kts 88°
2026-05-08 19:01 38.63874 -121.41155 7667 ft 237 kts 85°
2026-05-08 19:02 38.64167 -121.39055 8281 ft 242 kts 82°
2026-05-08 19:02 38.64343 -121.36933 8555 ft 265 kts 93°
2026-05-08 19:02 38.64327 -121.34384 8298 ft 310 kts 97°
2026-05-08 19:02 38.64124 -121.31452 8181 ft 349 kts 98°
2026-05-08 19:03 38.63926 -121.28249 8650 ft 364 kts 96°
2026-05-08 19:03 38.63823 -121.25361 9512 ft 359 kts 95°
2026-05-08 19:03 38.63785 -121.22533 10542 ft 346 kts 94°
2026-05-08 19:03 38.63795 -121.19814 11587 ft 333 kts 93°
2026-05-08 19:04 38.63835 -121.16923 12693 ft 317 kts 93°
2026-05-08 19:04 38.63888 -121.14197 13589 ft 309 kts 93°
2026-05-08 19:04 38.63944 -121.11478 14076 ft 313 kts 93°
2026-05-08 19:04 38.64004 -121.08644 14561 ft 317 kts 93°
2026-05-08 19:05 38.64068 -121.05828 15081 ft 319 kts 93°
2026-05-08 19:05 38.64132 -121.03016 15601 ft 321 kts 93°
2026-05-08 19:05 38.64197 -121.00121 16112 ft 324 kts 93°
2026-05-08 19:05 38.64261 -120.97293 16578 ft 326 kts 94°
2026-05-08 19:06 38.64328 -120.94357 17049 ft 329 kts 94°
2026-05-08 19:06 38.64395 -120.91402 17075 ft 330 kts 94°
2026-05-08 19:06 38.64462 -120.88472 17111 ft 328 kts 94°
2026-05-08 19:06 38.64524 -120.85681 17108 ft 329 kts 94°
2026-05-08 19:07 38.64586 -120.82822 17112 ft 330 kts 94°
2026-05-08 19:07 38.64651 -120.79824 17110 ft 330 kts 94°
2026-05-08 19:07 38.64704 -120.77360 17122 ft 331 kts 94°
2026-05-08 19:07 38.64764 -120.74549 17358 ft 328 kts 94°
2026-05-08 19:08 38.64826 -120.71623 17846 ft 330 kts 94°
2026-05-08 19:08 38.64847 -120.68704 18231 ft 333 kts 96°
2026-05-08 19:08 38.64800 -120.65748 18657 ft 335 kts 97°
2026-05-08 19:08 38.64733 -120.62944 19056 ft 337 kts 98°
2026-05-08 19:09 38.64667 -120.60348 19430 ft 338 kts 98°
2026-05-08 19:09 38.64589 -120.57287 19866 ft 340 kts 98°
2026-05-08 19:09 38.64514 -120.54250 20280 ft 343 kts 98°
2026-05-08 19:09 38.64441 -120.51229 20716 ft 345 kts 98°
2026-05-08 19:10 38.64367 -120.48083 21139 ft 347 kts 98°
2026-05-08 19:10 38.64295 -120.44993 21537 ft 349 kts 98°
2026-05-08 19:10 38.64226 -120.41922 21928 ft 352 kts 98°
2026-05-08 19:10 38.64154 -120.38806 22327 ft 354 kts 98°
2026-05-08 19:11 38.64078 -120.35588 22709 ft 356 kts 98°
2026-05-08 19:11 38.64007 -120.32600 23057 ft 358 kts 98°
2026-05-08 19:11 38.63932 -120.29429 23419 ft 360 kts 98°
2026-05-08 19:11 38.63853 -120.26176 23767 ft 362 kts 98°
2026-05-08 19:12 38.63775 -120.22955 24134 ft 364 kts 98°
2026-05-08 19:12 38.63698 -120.19801 24458 ft 366 kts 98°
2026-05-08 19:12 38.63618 -120.16557 24758 ft 368 kts 98°
2026-05-08 19:12 38.63535 -120.13262 25077 ft 370 kts 98°
2026-05-08 19:13 38.63451 -120.09941 25404 ft 371 kts 98°
2026-05-08 19:13 38.63365 -120.06630 25716 ft 373 kts 98°
2026-05-08 19:13 38.63280 -120.03338 26008 ft 375 kts 98°
2026-05-08 19:13 38.63195 -120.00098 26242 ft 378 kts 98°
2026-05-08 19:14 38.63093 -119.96769 26506 ft 376 kts 100°
2026-05-08 19:14 38.62968 -119.93402 26900 ft 376 kts 98°
2026-05-08 19:14 38.62884 -119.90112 27256 ft 375 kts 98°
2026-05-08 19:14 38.62807 -119.86776 27588 ft 376 kts 98°
2026-05-08 19:15 38.62738 -119.83792 27866 ft 375 kts 98°
2026-05-08 19:15 38.62654 -119.80446 28136 ft 374 kts 99°
2026-05-08 19:15 38.62566 -119.77134 28456 ft 373 kts 99°
2026-05-08 19:15 38.62477 -119.73846 28757 ft 373 kts 99°
2026-05-08 19:16 38.62383 -119.70507 29049 ft 373 kts 99°
2026-05-08 19:16 38.62288 -119.67210 29362 ft 372 kts 99°
2026-05-08 19:16 38.62192 -119.63897 29636 ft 371 kts 99°
2026-05-08 19:16 38.62094 -119.60612 29899 ft 371 kts 99°
2026-05-08 19:17 38.61995 -119.57300 30144 ft 370 kts 99°
2026-05-08 19:17 38.61896 -119.54048 30386 ft 370 kts 99°
2026-05-08 19:17 38.61795 -119.50720 30608 ft 370 kts 99°
2026-05-08 19:17 38.61696 -119.47501 30813 ft 369 kts 99°
2026-05-08 19:18 38.61593 -119.44170 31028 ft 368 kts 100°
2026-05-08 19:18 38.61491 -119.40929 31187 ft 370 kts 100°
2026-05-08 19:18 38.61382 -119.37604 31006 ft 382 kts 99°
2026-05-08 19:18 38.61267 -119.34172 30858 ft 392 kts 99°
2026-05-08 19:19 38.61149 -119.30642 30836 ft 399 kts 99°
2026-05-08 19:19 38.60917 -119.23471 30936 ft 409 kts 99°
2026-05-08 19:20 38.60675 -119.16117 31033 ft 419 kts 99°
2026-05-08 19:20 38.60421 -119.08564 31128 ft 429 kts 99°
2026-05-08 19:21 38.60161 -119.00974 31353 ft 435 kts 99°
2026-05-08 19:21 38.60027 -118.97058 31600 ft 433 kts 99°
2026-05-08 19:21 38.59894 -118.93220 31885 ft 431 kts 99°
2026-05-08 19:21 38.59761 -118.89417 32082 ft 431 kts 99°
2026-05-08 19:22 38.59622 -118.85550 32253 ft 432 kts 99°
2026-05-08 19:22 38.59483 -118.81723 32463 ft 431 kts 99°
2026-05-08 19:22 38.59343 -118.77890 32688 ft 430 kts 99°
2026-05-08 19:22 38.59205 -118.74147 32875 ft 429 kts 99°
2026-05-08 19:23 38.59060 -118.70265 33062 ft 429 kts 99°
2026-05-08 19:23 38.58918 -118.66495 33202 ft 430 kts 99°
2026-05-08 19:23 38.58773 -118.62688 33368 ft 430 kts 99°
2026-05-08 19:23 38.58628 -118.58894 33553 ft 429 kts 99°
2026-05-08 19:24 38.58479 -118.55022 33724 ft 428 kts 100°
2026-05-08 19:24 38.58333 -118.51269 33874 ft 429 kts 100°
2026-05-08 19:24 38.58184 -118.47476 34033 ft 428 kts 100°
2026-05-08 19:24 38.58037 -118.43737 34199 ft 428 kts 100°
2026-05-08 19:25 38.57881 -118.39828 34356 ft 428 kts 100°
2026-05-08 19:25 38.57728 -118.36035 34497 ft 427 kts 100°
2026-05-08 19:25 38.57577 -118.32284 34639 ft 427 kts 100°
2026-05-08 19:25 38.57423 -118.28501 34786 ft 427 kts 100°
2026-05-08 19:26 38.57267 -118.24714 34922 ft 427 kts 100°
2026-05-08 19:26 38.57102 -118.20930 35047 ft 426 kts 101°
2026-05-08 19:26 38.56916 -118.17159 35171 ft 426 kts 101°
2026-05-08 19:26 38.56718 -118.13378 35286 ft 425 kts 101°
2026-05-08 19:27 38.56518 -118.09613 35351 ft 425 kts 101°
2026-05-08 19:27 38.56118 -118.02085 35490 ft 425 kts 101°
2026-05-08 19:28 38.55719 -117.94541 35615 ft 425 kts 101°
2026-05-08 19:28 38.55321 -117.87065 35769 ft 424 kts 101°
2026-05-08 19:29 38.54913 -117.79484 35899 ft 424 kts 102°
2026-05-08 19:29 38.54507 -117.72008 36083 ft 421 kts 102°
2026-05-08 19:30 38.54093 -117.64521 36107 ft 423 kts 102°
2026-05-08 19:30 38.53674 -117.57029 36126 ft 425 kts 102°
2026-05-08 19:31 38.53246 -117.49451 36123 ft 427 kts 102°
2026-05-08 19:31 38.52813 -117.41858 36114 ft 430 kts 102°
2026-05-08 19:32 38.52374 -117.34222 36122 ft 433 kts 102°
2026-05-08 19:32 38.52004 -117.27838 36124 ft 435 kts 101°
2026-05-08 19:33 38.51757 -117.18754 36116 ft 441 kts 98°
2026-05-08 19:33 38.51669 -117.12208 36114 ft 443 kts 98°
2026-05-08 19:34 38.51542 -117.04337 36108 ft 445 kts 98°
2026-05-08 19:34 38.51383 -116.96433 36114 ft 447 kts 99°
2026-05-08 19:35 38.51206 -116.88466 36112 ft 450 kts 99°
2026-05-08 19:35 38.51020 -116.80459 36111 ft 452 kts 99°
2026-05-08 19:36 38.50829 -116.72413 36110 ft 454 kts 99°
2026-05-08 19:36 38.50631 -116.64327 36120 ft 457 kts 99°
2026-05-08 19:37 38.50428 -116.56197 36114 ft 459 kts 99°
2026-05-08 19:37 38.50218 -116.48040 36115 ft 461 kts 99°
2026-05-08 19:38 38.50002 -116.39838 36111 ft 462 kts 99°
2026-05-08 19:38 38.49779 -116.31627 36121 ft 463 kts 99°
2026-05-08 19:39 38.49555 -116.23581 36110 ft 464 kts 99°
2026-05-08 19:39 38.49319 -116.15300 36110 ft 464 kts 99°
2026-05-08 19:40 38.49078 -116.07061 36107 ft 464 kts 99°
2026-05-08 19:40 38.48833 -115.98832 36109 ft 463 kts 99°
2026-05-08 19:41 38.48582 -115.90641 36116 ft 461 kts 99°
2026-05-08 19:41 38.48328 -115.82530 36113 ft 460 kts 99°
2026-05-08 19:42 38.48065 -115.74331 36107 ft 458 kts 99°
2026-05-08 19:42 38.47800 -115.66226 36110 ft 457 kts 99°
2026-05-08 19:43 38.47530 -115.58171 36111 ft 455 kts 99°
2026-05-08 19:43 38.47256 -115.50130 36112 ft 454 kts 99°
2026-05-08 19:44 38.46975 -115.42084 36113 ft 455 kts 99°
2026-05-08 19:44 38.46686 -115.33973 36114 ft 455 kts 100°
2026-05-08 19:45 38.46394 -115.25901 36112 ft 455 kts 100°
2026-05-08 19:45 38.46096 -115.17823 36107 ft 456 kts 100°
2026-05-08 19:46 38.45792 -115.09735 36111 ft 457 kts 100°
2026-05-08 19:46 38.45326 -114.97632 36110 ft 458 kts 100°
2026-05-08 19:47 38.45007 -114.89504 36122 ft 459 kts 100°
2026-05-08 19:47 38.44681 -114.81362 36106 ft 460 kts 100°
2026-05-08 19:48 38.44350 -114.73211 36109 ft 461 kts 100°
2026-05-08 19:48 38.44015 -114.65047 36114 ft 461 kts 100°
2026-05-08 19:49 38.43673 -114.56905 36110 ft 461 kts 100°
2026-05-08 19:49 38.43322 -114.48739 36113 ft 460 kts 100°
2026-05-08 19:50 38.42966 -114.40576 36113 ft 460 kts 100°
2026-05-08 19:50 38.42606 -114.32427 36106 ft 460 kts 100°
2026-05-08 19:51 38.42242 -114.24301 36113 ft 459 kts 100°
2026-05-08 19:51 38.41875 -114.16243 36113 ft 458 kts 100°
2026-05-08 19:52 38.41498 -114.08098 36108 ft 457 kts 101°
2026-05-08 19:52 38.41121 -114.00066 36109 ft 457 kts 101°
2026-05-08 19:53 38.40737 -113.92011 36117 ft 457 kts 101°
2026-05-08 19:53 38.40344 -113.83876 36106 ft 457 kts 101°
2026-05-08 19:54 38.39950 -113.75847 36112 ft 456 kts 101°
2026-05-08 19:54 38.39550 -113.67786 36113 ft 456 kts 101°
2026-05-08 19:55 38.39145 -113.59747 36110 ft 455 kts 101°
2026-05-08 19:55 38.38737 -113.51727 36108 ft 455 kts 101°
2026-05-08 19:56 38.38334 -113.43967 36113 ft 455 kts 101°
2026-05-08 19:56 38.37912 -113.35937 36112 ft 455 kts 101°
2026-05-08 19:57 38.37484 -113.27889 36117 ft 456 kts 101°
2026-05-08 19:57 38.37050 -113.19814 36107 ft 456 kts 101°
2026-05-08 19:58 38.36611 -113.11740 36117 ft 457 kts 101°
2026-05-08 19:58 38.36166 -113.03665 36116 ft 458 kts 101°
2026-05-08 19:59 38.35494 -112.95696 36110 ft 454 kts 105°
2026-05-08 19:59 38.34517 -112.87720 36107 ft 453 kts 106°
2026-05-08 20:00 38.33518 -112.79781 36118 ft 454 kts 106°
2026-05-08 20:00 38.32555 -112.71909 36112 ft 455 kts 106°
2026-05-08 20:01 38.31597 -112.63946 36115 ft 455 kts 106°
2026-05-08 20:01 38.30637 -112.55969 36112 ft 455 kts 106°
2026-05-08 20:02 38.29673 -112.48012 36120 ft 455 kts 106°
2026-05-08 20:02 38.28704 -112.40059 36113 ft 454 kts 106°
2026-05-08 20:03 38.27739 -112.32180 36111 ft 453 kts 106°
2026-05-08 20:03 38.26760 -112.24252 36111 ft 453 kts 106°
2026-05-08 20:04 38.25782 -112.16375 36112 ft 452 kts 106°
2026-05-08 20:04 38.24788 -112.08407 36120 ft 452 kts 106°
2026-05-08 20:05 38.23802 -112.00553 36109 ft 451 kts 106°
2026-05-08 20:05 38.22804 -111.92642 36106 ft 450 kts 106°
2026-05-08 20:06 38.21806 -111.84782 36115 ft 450 kts 106°
2026-05-08 20:06 38.20813 -111.76999 36112 ft 449 kts 106°
2026-05-08 20:07 38.19808 -111.69166 36112 ft 449 kts 107°
2026-05-08 20:07 38.18791 -111.61281 36109 ft 448 kts 107°
2026-05-08 20:08 38.17788 -111.53554 36119 ft 449 kts 107°
2026-05-08 20:08 38.16777 -111.45801 36116 ft 449 kts 107°
2026-05-08 20:09 38.15808 -111.38417 36111 ft 449 kts 107°
2026-05-08 20:09 38.14773 -111.30557 36107 ft 449 kts 107°
2026-05-08 20:10 38.13736 -111.22731 36111 ft 450 kts 107°
2026-05-08 20:10 38.12688 -111.14862 36116 ft 451 kts 107°
2026-05-08 20:11 38.11635 -111.06995 36112 ft 452 kts 107°
2026-05-08 20:11 38.10588 -110.99217 36113 ft 453 kts 107°
2026-05-08 20:12 38.09512 -110.91259 36114 ft 454 kts 107°
2026-05-08 20:12 38.08467 -110.83574 36107 ft 454 kts 107°
2026-05-08 20:13 38.07392 -110.75706 36110 ft 454 kts 107°
2026-05-08 20:13 38.06305 -110.67783 36110 ft 454 kts 107°
2026-05-08 20:14 38.05220 -110.59922 36111 ft 454 kts 107°
2026-05-08 20:14 38.04306 -110.53342 36114 ft 454 kts 107°
2026-05-08 20:15 38.03022 -110.44137 36110 ft 453 kts 107°
2026-05-08 20:15 38.01923 -110.36287 36102 ft 452 kts 107°
2026-05-08 20:16 38.01006 -110.29778 36092 ft 450 kts 107°
2026-05-08 20:16 37.99907 -110.22005 36097 ft 448 kts 107°
2026-05-08 20:17 37.98798 -110.14223 36111 ft 448 kts 107°
2026-05-08 20:17 37.97686 -110.06451 36109 ft 449 kts 107°
2026-05-08 20:18 37.96574 -109.98704 36116 ft 448 kts 108°
2026-05-08 20:18 37.95531 -109.91475 36123 ft 448 kts 108°
2026-05-08 20:19 37.94411 -109.83741 36110 ft 449 kts 108°
2026-05-08 20:19 37.93282 -109.75987 36108 ft 450 kts 108°
2026-05-08 20:20 37.92143 -109.68211 36110 ft 450 kts 108°
2026-05-08 20:20 37.90997 -109.60424 36110 ft 451 kts 108°
2026-05-08 20:21 37.89837 -109.52580 36106 ft 452 kts 108°
2026-05-08 20:21 37.88682 -109.44794 36110 ft 451 kts 108°
2026-05-08 20:22 37.87517 -109.36986 36113 ft 452 kts 108°
2026-05-08 20:22 37.86455 -109.29900 36115 ft 452 kts 108°
2026-05-08 20:23 37.85347 -109.22540 36111 ft 452 kts 108°
2026-05-08 20:23 37.84217 -109.15061 36115 ft 452 kts 108°
2026-05-08 20:24 37.83080 -109.07574 36115 ft 452 kts 108°
2026-05-08 20:24 37.81922 -108.99969 36110 ft 452 kts 108°
2026-05-08 20:25 37.80750 -108.92129 36115 ft 454 kts 105°
2026-05-08 20:26 37.78633 -108.67699 36110 ft 456 kts 103°
2026-05-08 20:27 37.78001 -108.60488 36108 ft 455 kts 103°
2026-05-08 20:27 37.77349 -108.53219 36107 ft 453 kts 104°
2026-05-08 20:28 37.76755 -108.46660 36111 ft 452 kts 104°
2026-05-08 20:28 37.76054 -108.38969 36112 ft 451 kts 104°
2026-05-08 20:29 37.75358 -108.31378 36127 ft 451 kts 104°
2026-05-08 20:29 37.74635 -108.23554 36121 ft 451 kts 104°
2026-05-08 20:30 37.73920 -108.15873 36118 ft 453 kts 104°
2026-05-08 20:30 37.73183 -108.07992 36112 ft 454 kts 104°
2026-05-08 20:31 37.72449 -108.00211 36103 ft 454 kts 104°
2026-05-08 20:31 37.71689 -107.92220 36110 ft 454 kts 104°
2026-05-08 20:32 37.70979 -107.84296 36116 ft 455 kts 103°
2026-05-08 20:32 37.70258 -107.76371 36112 ft 455 kts 104°
2026-05-08 20:33 37.69469 -107.68423 36108 ft 455 kts 104°
2026-05-08 20:33 37.68641 -107.60497 36114 ft 456 kts 104°
2026-05-08 20:34 37.67839 -107.52533 36111 ft 457 kts 104°
2026-05-08 20:35 37.66652 -107.40600 36109 ft 455 kts 104°
2026-05-08 20:35 37.65993 -107.34016 36112 ft 454 kts 104°
2026-05-08 20:36 37.65061 -107.24776 36108 ft 454 kts 104°
2026-05-08 20:36 37.64395 -107.18218 36115 ft 454 kts 104°
2026-05-08 20:37 37.63457 -107.09035 36114 ft 452 kts 104°
2026-05-08 20:37 37.62786 -107.02514 36109 ft 451 kts 104°
2026-05-08 20:38 37.61996 -106.94879 36112 ft 451 kts 104°
2026-05-08 20:38 37.61174 -106.86980 36114 ft 451 kts 104°
2026-05-08 20:39 37.59934 -106.79313 36117 ft 442 kts 114°
2026-05-08 20:39 37.58092 -106.72120 36122 ft 441 kts 115°
2026-05-08 20:40 37.56168 -106.64704 36110 ft 442 kts 115°
2026-05-08 20:40 37.54296 -106.57354 36110 ft 443 kts 115°
2026-05-08 20:41 37.52443 -106.50017 36113 ft 443 kts 115°
2026-05-08 20:41 37.50591 -106.42691 36112 ft 443 kts 115°
2026-05-08 20:42 37.48710 -106.35271 36128 ft 443 kts 115°
2026-05-08 20:42 37.46826 -106.27878 36114 ft 444 kts 115°
2026-05-08 20:43 37.44940 -106.20482 36113 ft 443 kts 115°
2026-05-08 20:43 37.43050 -106.13098 36119 ft 444 kts 115°
2026-05-08 20:44 37.41151 -106.05701 36117 ft 444 kts 115°
2026-05-08 20:44 37.39233 -105.98252 36114 ft 445 kts 115°
2026-05-08 20:45 37.37324 -105.90856 36117 ft 445 kts 115°
2026-05-08 20:45 37.35405 -105.83443 36115 ft 445 kts 115°
2026-05-08 20:46 37.33758 -105.75893 36120 ft 450 kts 110°
2026-05-08 20:46 37.32382 -105.68225 36120 ft 451 kts 110°
2026-05-08 20:47 37.31018 -105.60589 36118 ft 450 kts 110°
2026-05-08 20:47 37.29613 -105.52933 36118 ft 450 kts 110°
2026-05-08 20:48 37.28206 -105.45388 36114 ft 449 kts 110°
2026-05-08 20:48 37.26773 -105.37758 36116 ft 449 kts 110°
2026-05-08 20:49 37.25339 -105.30145 36130 ft 449 kts 110°
2026-05-08 20:49 37.23890 -105.22483 36118 ft 449 kts 110°
2026-05-08 20:50 37.22472 -105.15001 36123 ft 447 kts 110°
2026-05-08 20:50 37.21030 -105.07415 36121 ft 447 kts 110°
2026-05-08 20:51 37.20093 -105.02517 36110 ft 447 kts 110°